EN

Hourly Weather Chermenino

Today, 21 October, Wednesday

Time Temperature Precipitation Wind Pressure Humidity
00:00 -2°C° 0 mm 2 mps 745 mmHg 95%
01:00 -2°C° 0 mm 2 mps 745 mmHg 96%
02:00 -1°C° 0 mm 2 mps 745 mmHg 97%
03:00 -1°C° 0 mm 2 mps 745 mmHg 96%
04:00 -2°C° 0 mm 2 mps 745 mmHg 95%
05:00 -2°C° 0 mm 2 mps 745 mmHg 93%
06:00 -1°C° 0 mm 2 mps 745 mmHg 91%
07:00 -1°C° 0 mm 2 mps 745 mmHg 89%
08:00 +1°C° 0 mm 2 mps 745 mmHg 88%
09:00 +1°C° 0.2 mm 2 mps 745 mmHg 90%
10:00 +1°C° 0.2 mm 2 mps 745 mmHg 93%
11:00 +2°C° 0.2 mm 2 mps 744 mmHg 95%
12:00 +2°C° 0 mm 2 mps 744 mmHg 96%
13:00 +2°C° 0 mm 2 mps 744 mmHg 96%
14:00 +2°C° 0 mm 2 mps 744 mmHg 96%
15:00 +2°C° 0.1 mm 2 mps 743 mmHg 96%
16:00 +2°C° 0.1 mm 2 mps 743 mmHg 97%
17:00 +2°C° 0.1 mm 2 mps 742 mmHg 97%
18:00 +2°C° 0.1 mm 2 mps 742 mmHg 98%
19:00 +3°C° 0.1 mm 2 mps 742 mmHg 98%
20:00 +3°C° 0.1 mm 2 mps 742 mmHg 98%
21:00 +3°C° 0 mm 2 mps 742 mmHg 98%
22:00 +3°C° 0 mm 2 mps 742 mmHg 98%
23:00 +3°C° 0 mm 2 mps 741 mmHg 98%

Tomorrow, 22 October, Thursday

Time Temperature Precipitation Wind Pressure Humidity
00:00 +3°C° 0 mm 2 mps 742 mmHg 98%
01:00 +3°C° 0 mm 2 mps 742 mmHg 98%
02:00 +3°C° 0 mm 2 mps 742 mmHg 98%
03:00 +3°C° 0 mm 2 mps 741 mmHg 98%
04:00 +3°C° 0 mm 2 mps 741 mmHg 98%
05:00 +3°C° 0 mm 2 mps 741 mmHg 98%
06:00 +3°C° 0 mm 3 mps 740 mmHg 97%
07:00 +3°C° 0 mm 3 mps 740 mmHg 96%
08:00 +4°C° 0 mm 3 mps 740 mmHg 95%
09:00 +4°C° 0.3 mm 3 mps 740 mmHg 94%
10:00 +4°C° 0.3 mm 4 mps 739 mmHg 94%
11:00 +5°C° 0.3 mm 4 mps 739 mmHg 93%
12:00 +5°C° 1.1 mm 4 mps 738 mmHg 94%
13:00 +5°C° 1.1 mm 4 mps 737 mmHg 94%
14:00 +5°C° 1.1 mm 4 mps 737 mmHg 95%
15:00 +5°C° 0.9 mm 5 mps 736 mmHg 95%
16:00 +5°C° 0.9 mm 5 mps 735 mmHg 95%
17:00 +6°C° 0.9 mm 5 mps 734 mmHg 94%
18:00 +6°C° 0.3 mm 5 mps 734 mmHg 94%
19:00 +7°C° 0.3 mm 4 mps 733 mmHg 94%
20:00 +7°C° 0.3 mm 4 mps 733 mmHg 93%
21:00 +8°C° 0.4 mm 4 mps 733 mmHg 93%
22:00 +9°C° 0.4 mm 5 mps 732 mmHg 93%
23:00 +9°C° 0.4 mm 5 mps 732 mmHg 92%

Day after tomorrow, 23 October, Friday

Time Temperature Precipitation Wind Pressure Humidity
00:00 +9°C° 0.2 mm 5 mps 732 mmHg 90%
01:00 +10°C° 0.2 mm 5 mps 732 mmHg 88%
02:00 +10°C° 0.2 mm 6 mps 732 mmHg 86%
03:00 +10°C° 0.1 mm 5 mps 733 mmHg 86%
04:00 +10°C° 0.1 mm 5 mps 733 mmHg 85%
05:00 +10°C° 0.1 mm 5 mps 733 mmHg 84%
06:00 +10°C° 0 mm 5 mps 733 mmHg 85%
07:00 +9°C° 0 mm 5 mps 734 mmHg 85%
08:00 +9°C° 0 mm 5 mps 734 mmHg 85%
09:00 +9°C° 0 mm 5 mps 734 mmHg 84%
10:00 +11°C° 0 mm 4 mps 734 mmHg 84%
11:00 +11°C° 0 mm 4 mps 734 mmHg 83%
12:00 +11°C° 0.2 mm 4 mps 734 mmHg 84%
13:00 +10°C° 0.2 mm 5 mps 734 mmHg 85%
14:00 +10°C° 0.2 mm 5 mps 733 mmHg 85%
15:00 +9°C° 1.5 mm 5 mps 733 mmHg 88%
16:00 +10°C° 1.5 mm 4 mps 732 mmHg 91%
17:00 +10°C° 1.5 mm 4 mps 731 mmHg 94%
18:00 +10°C° 0.3 mm 4 mps 731 mmHg 92%
19:00 +10°C° 0.3 mm 4 mps 731 mmHg 90%
20:00 +9°C° 0.3 mm 5 mps 731 mmHg 88%
21:00 +9°C° 0.1 mm 5 mps 731 mmHg 88%
22:00 +8°C° 0.1 mm 4 mps 731 mmHg 88%
23:00 +8°C° 0.1 mm 4 mps 732 mmHg 88%

24 October, Saturday

Time Temperature Precipitation Wind Pressure Humidity
00:00 +7°C° 0 mm 4 mps 732 mmHg 87%
01:00 +7°C° 0 mm 4 mps 732 mmHg 85%
02:00 +7°C° 0 mm 4 mps 733 mmHg 84%
03:00 +7°C° 0 mm 4 mps 733 mmHg 86%
04:00 +6°C° 0 mm 4 mps 733 mmHg 87%
05:00 +6°C° 0 mm 4 mps 733 mmHg 89%
06:00 +6°C° 0 mm 4 mps 734 mmHg 88%
07:00 +6°C° 0 mm 4 mps 734 mmHg 87%
08:00 +6°C° 0 mm 4 mps 734 mmHg 87%
09:00 +7°C° 0 mm 4 mps 735 mmHg 86%
10:00 +7°C° 0 mm 4 mps 735 mmHg 85%
11:00 +7°C° 0 mm 4 mps 736 mmHg 84%
12:00 +7°C° 0 mm 4 mps 736 mmHg 84%
13:00 +8°C° 0 mm 3 mps 736 mmHg 84%
14:00 +8°C° 0 mm 3 mps 736 mmHg 85%
15:00 +8°C° 0 mm 3 mps 736 mmHg 85%
16:00 +7°C° 0 mm 3 mps 736 mmHg 86%
17:00 +7°C° 0 mm 3 mps 736 mmHg 87%
18:00 +6°C° 0 mm 2 mps 736 mmHg 87%
19:00 +6°C° 0 mm 2 mps 737 mmHg 88%
20:00 +5°C° 0 mm 2 mps 737 mmHg 89%
21:00 +6°C° 0 mm 1 mps 737 mmHg 90%
22:00 +6°C° 0 mm 1 mps 737 mmHg 91%
23:00 +6°C° 0 mm 1 mps 737 mmHg 92%

25 October, Sunday

Time Temperature Precipitation Wind Pressure Humidity
00:00 +6°C° 0 mm 1 mps 737 mmHg 93%
01:00 +6°C° 0 mm 1 mps 737 mmHg 94%
02:00 +6°C° 0 mm 1 mps 737 mmHg 95%
03:00 +6°C° 0 mm 1 mps 737 mmHg 95%
04:00 +5°C° 0 mm 1 mps 738 mmHg 96%
05:00 +5°C° 0 mm 1 mps 738 mmHg 96%
06:00 +5°C° 0 mm 1 mps 738 mmHg 96%
07:00 +5°C° 0 mm 1 mps 738 mmHg 95%
08:00 +6°C° 0 mm 1 mps 739 mmHg 95%
09:00 +7°C° 0 mm 1 mps 739 mmHg 91%
10:00 +8°C° 0 mm 1 mps 739 mmHg 87%
11:00 +8°C° 0 mm 2 mps 740 mmHg 84%
12:00 +8°C° 0 mm 2 mps 740 mmHg 84%
13:00 +8°C° 0 mm 2 mps 740 mmHg 85%
14:00 +9°C° 0 mm 2 mps 741 mmHg 86%
15:00 +8°C° 0 mm 2 mps 741 mmHg 88%
16:00 +8°C° 0 mm 2 mps 742 mmHg 90%
17:00 +9°C° 0 mm 1 mps 742 mmHg 92%
18:00 +9°C° 0 mm 1 mps 742 mmHg 91%
19:00 +8°C° 0 mm 1 mps 743 mmHg 91%
20:00 +8°C° 0 mm 1 mps 743 mmHg 90%
21:00 +8°C° 0 mm 1 mps 744 mmHg 90%
22:00 +8°C° 0 mm 1 mps 744 mmHg 90%
23:00 +7°C° 0 mm 1 mps 744 mmHg 89%

26 October, Monday

Time Temperature Precipitation Wind Pressure Humidity
00:00 +7°C° 0 mm 1 mps 745 mmHg 91%
01:00 +6°C° 0 mm 1 mps 745 mmHg 92%
02:00 +6°C° 0 mm 1 mps 745 mmHg 93%
03:00 +5°C° 0 mm 1 mps 745 mmHg 94%
04:00 +5°C° 0 mm 1 mps 745 mmHg 94%
05:00 +4°C° 0 mm 2 mps 746 mmHg 95%
06:00 +4°C° 0 mm 2 mps 746 mmHg 94%
07:00 +4°C° 0 mm 2 mps 746 mmHg 94%
08:00 +5°C° 0 mm 2 mps 746 mmHg 94%
09:00 +6°C° 0 mm 2 mps 746 mmHg 90%
10:00 +7°C° 0 mm 3 mps 747 mmHg 85%
11:00 +8°C° 0 mm 3 mps 747 mmHg 81%
12:00 +9°C° 0 mm 3 mps 747 mmHg 80%
13:00 +9°C° 0 mm 3 mps 747 mmHg 79%
14:00 +9°C° 0 mm 3 mps 747 mmHg 78%
15:00 +8°C° 0 mm 3 mps 747 mmHg 82%
16:00 +7°C° 0 mm 2 mps 747 mmHg 87%
17:00 +6°C° 0 mm 2 mps 747 mmHg 92%
18:00 +6°C° 0 mm 2 mps 747 mmHg 92%
19:00 +6°C° 0 mm 2 mps 747 mmHg 93%
20:00 +5°C° 0 mm 2 mps 747 mmHg 93%
21:00 +5°C° 0 mm 2 mps 747 mmHg 93%
22:00 +5°C° 0 mm 2 mps 747 mmHg 93%
23:00 +5°C° 0 mm 2 mps 747 mmHg 94%

27 October, Tuesday

Time Temperature Precipitation Wind Pressure Humidity
00:00 +5°C° 0 mm 2 mps 747 mmHg 94%
01:00 +5°C° 0 mm 2 mps 747 mmHg 94%
02:00 +4°C° 0 mm 2 mps 747 mmHg 94%
03:00 +4°C° 0 mm 2 mps 747 mmHg 95%
04:00 +4°C° 0 mm 2 mps 748 mmHg 95%
05:00 +4°C° 0 mm 2 mps 748 mmHg 96%
06:00 +4°C° 0 mm 2 mps 748 mmHg 96%
07:00 +3°C° 0 mm 3 mps 748 mmHg 96%
08:00 +3°C° 0 mm 3 mps 748 mmHg 96%
09:00 +5°C° 0 mm 3 mps 748 mmHg 90%
10:00 +7°C° 0 mm 3 mps 748 mmHg 85%
11:00 +8°C° 0 mm 3 mps 748 mmHg 79%
12:00 +8°C° 0 mm 3 mps 748 mmHg 77%
13:00 +9°C° 0 mm 3 mps 748 mmHg 75%
14:00 +9°C° 0 mm 3 mps 748 mmHg 73%
15:00 +8°C° 0 mm 3 mps 748 mmHg 77%
16:00 +7°C° 0 mm 3 mps 748 mmHg 81%
17:00 +5°C° 0 mm 3 mps 748 mmHg 86%
18:00 +5°C° 0 mm 3 mps 748 mmHg 86%
19:00 +4°C° 0 mm 3 mps 748 mmHg 87%
20:00 +4°C° 0 mm 3 mps 748 mmHg 88%
21:00 +4°C° 0 mm 3 mps 748 mmHg 88%
22:00 +4°C° 0 mm 3 mps 748 mmHg 88%
23:00 +3°C° 0 mm 3 mps 748 mmHg 88%
Show more

We Need Your Consent

Meteoprog and our Service Providers may store and access personal data such as cookies, device identifiers or other similar technologies on your device and process such data to personalise content and ads, as well as provide social media features and to analyse the traffic.

  • Store and/or access information on your device

    Cookies, device identifiers or other information can be stored or accessed on your device for the purposes indicated above.

  • Personalised ads and content, ad and content measurement, audience insights, and products development

    Ads and content can be personalised based on a profile. More data can be added to better personalise ads and content. Ad and content performance can be measured. Insights about the audience who saw the ads and content can be derived. Such data can be used to develop or improve user’s experience, systems and software.

By clicking ‘I Agree’ you will allow the use of indicated cookies, device identifiers, web beacons or other similar technologies. Your settings can be changed in the browser on your device.

For certain purposes, legitimate interests may be relied on, rather than consent. You can read more about this in our Privacy and Cookie Policy.